• In Hungary
  • List of Countries
  • For 7 days
  • Water Temperature
  • Satellite Maps
  • Weather Map
  • News
  • Weather Widgets
  • user-avatar
    Login

    Hourly Weather Chernutevo

    Today, 22 May, Tuesday

    Time Temperature Precipitation Wind Pressure Humidity
    00:00 +13°C° 0 mm 4 mps 752 mmHg 58%
    01:00 +13°C° 0 mm 3 mps 753 mmHg 61%
    02:00 +12°C° 0 mm 3 mps 753 mmHg 64%
    03:00 +12°C° 0 mm 4 mps 754 mmHg 65%
    04:00 +12°C° 0 mm 4 mps 754 mmHg 62%
    05:00 +12°C° 0 mm 4 mps 755 mmHg 58%
    06:00 +12°C° 0 mm 3 mps 756 mmHg 55%
    07:00 +12°C° 0 mm 3 mps 756 mmHg 47%
    08:00 +13°C° 0 mm 3 mps 757 mmHg 38%
    09:00 +14°C° 0 mm 4 mps 758 mmHg 29%
    10:00 +16°C° 0 mm 3 mps 758 mmHg 26%
    11:00 +16°C° 0 mm 3 mps 758 mmHg 23%
    12:00 +17°C° 0 mm 3 mps 759 mmHg 21%
    13:00 +18°C° 0 mm 3 mps 759 mmHg 20%
    14:00 +18°C° 0 mm 2 mps 759 mmHg 20%
    15:00 +19°C° 0 mm 2 mps 759 mmHg 19%
    16:00 +19°C° 0 mm 2 mps 758 mmHg 20%
    17:00 +20°C° 0 mm 1 mps 758 mmHg 21%
    18:00 +19°C° 0 mm 1 mps 758 mmHg 22%
    19:00 +18°C° 0 mm 1 mps 758 mmHg 27%
    20:00 +15°C° 0 mm 1 mps 757 mmHg 31%
    21:00 +13°C° 0 mm 2 mps 757 mmHg 36%
    22:00 +12°C° 0 mm 2 mps 757 mmHg 37%
    23:00 +12°C° 0 mm 2 mps 756 mmHg 39%

    Tomorrow, 23 May, Wednesday

    Time Temperature Precipitation Wind Pressure Humidity
    00:00 +10°C° 0 mm 3 mps 756 mmHg 40%
    01:00 +11°C° 0 mm 3 mps 755 mmHg 39%
    02:00 +11°C° 0 mm 4 mps 755 mmHg 39%
    03:00 +11°C° 0 mm 4 mps 754 mmHg 38%
    04:00 +12°C° 0 mm 4 mps 753 mmHg 41%
    05:00 +13°C° 0 mm 4 mps 752 mmHg 45%
    06:00 +13°C° 0 mm 4 mps 751 mmHg 48%
    07:00 +15°C° 0 mm 4 mps 750 mmHg 51%
    08:00 +17°C° 0 mm 4 mps 749 mmHg 55%
    09:00 +18°C° 0 mm 4 mps 749 mmHg 58%
    10:00 +19°C° 0 mm 5 mps 748 mmHg 54%
    11:00 +20°C° 0 mm 5 mps 747 mmHg 49%
    12:00 +22°C° 0 mm 6 mps 747 mmHg 44%
    13:00 +22°C° 0.1 mm 5 mps 747 mmHg 45%
    14:00 +21°C° 0.1 mm 5 mps 746 mmHg 46%
    15:00 +21°C° 0.1 mm 4 mps 746 mmHg 47%
    16:00 +19°C° 1.1 mm 4 mps 747 mmHg 60%
    17:00 +17°C° 1.1 mm 4 mps 747 mmHg 73%
    18:00 +13°C° 1.1 mm 3 mps 747 mmHg 86%
    19:00 +12°C° 0.1 mm 4 mps 748 mmHg 83%
    20:00 +10°C° 0.1 mm 4 mps 749 mmHg 81%
    21:00 +7°C° 0.1 mm 5 mps 749 mmHg 78%
    22:00 +6°C° 0 mm 4 mps 750 mmHg 77%
    23:00 +6°C° 0 mm 4 mps 751 mmHg 77%

    Day after tomorrow, 24 May, Thursday

    Time Temperature Precipitation Wind Pressure Humidity
    00:00 +5°C° 0 mm 3 mps 751 mmHg 76%
    01:00 +4°C° 0 mm 3 mps 752 mmHg 78%
    02:00 +3°C° 0 mm 3 mps 753 mmHg 79%
    03:00 +2°C° 0 mm 3 mps 753 mmHg 81%
    04:00 +3°C° 0 mm 4 mps 754 mmHg 78%
    05:00 +3°C° 0 mm 4 mps 754 mmHg 76%
    06:00 +3°C° 0 mm 4 mps 754 mmHg 73%
    07:00 +4°C° 0 mm 4 mps 755 mmHg 69%
    08:00 +4°C° 0 mm 4 mps 755 mmHg 65%
    09:00 +5°C° 0 mm 5 mps 755 mmHg 61%
    10:00 +5°C° 0 mm 4 mps 756 mmHg 57%
    11:00 +6°C° 0 mm 4 mps 756 mmHg 54%
    12:00 +6°C° 0 mm 4 mps 756 mmHg 51%
    13:00 +7°C° 0 mm 4 mps 756 mmHg 50%
    14:00 +7°C° 0 mm 4 mps 757 mmHg 48%
    15:00 +7°C° 0 mm 4 mps 757 mmHg 47%
    16:00 +7°C° 0.1 mm 4 mps 757 mmHg 49%
    17:00 +6°C° 0.1 mm 4 mps 757 mmHg 52%
    18:00 +6°C° 0.1 mm 4 mps 757 mmHg 54%
    19:00 +5°C° 0 mm 4 mps 757 mmHg 57%
    20:00 +4°C° 0 mm 3 mps 757 mmHg 59%
    21:00 +3°C° 0 mm 3 mps 757 mmHg 62%
    22:00 +3°C° 0 mm 2 mps 758 mmHg 65%
    23:00 +2°C° 0 mm 2 mps 758 mmHg 68%

    25 May, Friday

    Time Temperature Precipitation Wind Pressure Humidity
    00:00 +1°C° 0 mm 2 mps 758 mmHg 71%
    01:00 +1°C° 0 mm 2 mps 758 mmHg 73%
    02:00 -1°C° 0 mm 2 mps 758 mmHg 76%
    03:00 -2°C° 0 mm 2 mps 758 mmHg 79%
    04:00 +1°C° 0 mm 2 mps 759 mmHg 71%
    05:00 +2°C° 0 mm 2 mps 759 mmHg 64%
    06:00 +2°C° 0 mm 3 mps 759 mmHg 57%
    07:00 +3°C° 0 mm 3 mps 759 mmHg 53%
    08:00 +5°C° 0 mm 3 mps 759 mmHg 49%
    09:00 +7°C° 0 mm 3 mps 759 mmHg 45%
    10:00 +8°C° 0 mm 3 mps 759 mmHg 45%
    11:00 +9°C° 0 mm 3 mps 759 mmHg 44%
    12:00 +9°C° 0 mm 3 mps 758 mmHg 43%
    13:00 +10°C° 0 mm 3 mps 758 mmHg 44%
    14:00 +10°C° 0 mm 3 mps 758 mmHg 46%
    15:00 +10°C° 0 mm 3 mps 758 mmHg 48%
    16:00 +10°C° 0.1 mm 3 mps 758 mmHg 51%
    17:00 +10°C° 0.1 mm 3 mps 758 mmHg 55%
    18:00 +10°C° 0.1 mm 3 mps 758 mmHg 58%
    19:00 +9°C° 0 mm 3 mps 758 mmHg 64%
    20:00 +8°C° 0 mm 2 mps 758 mmHg 70%
    21:00 +7°C° 0 mm 2 mps 758 mmHg 76%
    22:00 +6°C° 0 mm 2 mps 758 mmHg 79%
    23:00 +5°C° 0 mm 2 mps 758 mmHg 81%

    26 May, Saturday

    Time Temperature Precipitation Wind Pressure Humidity
    00:00 +4°C° 0 mm 2 mps 759 mmHg 84%
    01:00 +4°C° 0 mm 2 mps 759 mmHg 84%
    02:00 +3°C° 0 mm 2 mps 759 mmHg 84%
    03:00 +3°C° 0 mm 2 mps 759 mmHg 84%
    04:00 +4°C° 0 mm 2 mps 759 mmHg 77%
    05:00 +6°C° 0 mm 2 mps 759 mmHg 70%
    06:00 +8°C° 0 mm 2 mps 759 mmHg 63%
    07:00 +9°C° 0 mm 2 mps 758 mmHg 57%
    08:00 +12°C° 0 mm 2 mps 758 mmHg 51%
    09:00 +13°C° 0 mm 3 mps 758 mmHg 45%
    10:00 +14°C° 0 mm 3 mps 757 mmHg 42%
    11:00 +16°C° 0 mm 3 mps 757 mmHg 39%
    12:00 +18°C° 0 mm 3 mps 757 mmHg 36%
    13:00 +18°C° 0 mm 3 mps 756 mmHg 34%
    14:00 +19°C° 0 mm 3 mps 755 mmHg 33%
    15:00 +20°C° 0 mm 3 mps 755 mmHg 31%
    16:00 +20°C° 0 mm 3 mps 754 mmHg 32%
    17:00 +20°C° 0 mm 3 mps 754 mmHg 32%
    18:00 +20°C° 0 mm 2 mps 753 mmHg 33%
    19:00 +18°C° 0 mm 2 mps 753 mmHg 39%
    20:00 +16°C° 0 mm 2 mps 752 mmHg 44%
    21:00 +14°C° 0 mm 2 mps 752 mmHg 50%
    22:00 +14°C° 0 mm 2 mps 751 mmHg 55%
    23:00 +12°C° 0 mm 3 mps 751 mmHg 59%

    27 May, Sunday

    Time Temperature Precipitation Wind Pressure Humidity
    00:00 +11°C° 0 mm 4 mps 750 mmHg 64%
    01:00 +10°C° 0 mm 3 mps 750 mmHg 67%
    02:00 +8°C° 0 mm 3 mps 751 mmHg 70%
    03:00 +7°C° 0 mm 2 mps 751 mmHg 74%
    04:00 +7°C° 0 mm 3 mps 751 mmHg 67%
    05:00 +8°C° 0 mm 3 mps 751 mmHg 60%
    06:00 +7°C° 0 mm 4 mps 751 mmHg 53%
    07:00 +8°C° 0 mm 5 mps 751 mmHg 49%
    08:00 +9°C° 0 mm 5 mps 751 mmHg 44%
    09:00 +10°C° 0 mm 6 mps 751 mmHg 40%
    10:00 +10°C° 0 mm 6 mps 751 mmHg 40%
    11:00 +9°C° 0 mm 6 mps 752 mmHg 40%
    12:00 +9°C° 0 mm 6 mps 752 mmHg 40%
    13:00 +9°C° 0 mm 6 mps 752 mmHg 40%
    14:00 +9°C° 0 mm 6 mps 752 mmHg 40%
    15:00 +9°C° 0 mm 6 mps 753 mmHg 40%
    16:00 +9°C° 0 mm 6 mps 753 mmHg 42%
    17:00 +8°C° 0 mm 6 mps 753 mmHg 44%
    18:00 +8°C° 0 mm 6 mps 753 mmHg 46%
    19:00 +7°C° 0 mm 5 mps 753 mmHg 50%
    20:00 +6°C° 0 mm 4 mps 753 mmHg 55%
    21:00 +5°C° 0 mm 3 mps 754 mmHg 60%
    22:00 +4°C° 0 mm 4 mps 754 mmHg 62%
    23:00 +3°C° 0 mm 4 mps 754 mmHg 64%
    Show more